Flag for Germany Weather past 2 weeks in Dinslaken, North Rhine-Westphalia, Germany

Now
46 °F

Clear.


Feels Like: 43 °F
Forecast: 41 / 62 °F
Wind: 5 mph from Northeast

Location: Essen

Current Time: Apr 19, 2015 at 2:05:33 AM

Latest Report: Apr 19, 2015 at 1:00 AM


Visibility: 25 mi

Pressure: 30.27 "Hg

Humidity: 65%

Dew point: 35 °F

Location of DinslakenLocation

Historic Weather in Dinslaken — Graph

°F

Dinslaken temperature yesterday

Maximum temperature yesterday: 56 °F (at 5:00 PM)
Minimum temperature yesterday: 38 °F (at 7:00 AM)
Average temperature yesterday: 48 °F

Past Weeks' High & Low Weather Summary

 TemperatureHumidityPressure
High72 °F (Apr 15, 3:00 PM)100% (Apr 6, 11:00 AM)30.65 "Hg (Apr 6, 11:00 AM)
Low32 °F (Apr 5, 7:00 AM)27% (Apr 10, 3:00 PM)29.93 "Hg (Apr 15, 7:00 PM)
Average50 °F65%30.26 "Hg
* Reported Apr 4 1:00 AM — Apr 19 1:00 AM, Dinslaken, Weather by CustomWeather, © 2015

Note: Actual official high and low records may vary slightly from our data, if they occured in-between our weather recording intervals... More about our weather records

Advertising

Dinslaken weather history for previous 24 hours

 ConditionsComfort  
Time TempWeatherWind HumidityBarometerVisibility
1:00 AM
Sun, Apr 19
46 °FClear.5 mph65%30.27 "Hg25 mi
12:00 AM46 °FClear.5 mph60%30.28 "Hg18 mi
11:00 PM
Sat, Apr 18
49 °FPassing clouds.1 mph47%30.28 "Hg19 mi
10:00 PM50 °FClear.2 mph47%30.28 "Hg25 mi
9:00 PM51 °FClear.2 mph44%30.27 "Hg25 mi
8:00 PM53 °FSunny.2 mph41%30.27 "Hg25 mi
7:00 PM54 °FSunny.5 mph37%30.27 "Hg28 mi
6:00 PM55 °FSunny.5 mph35%30.28 "Hg34 mi
5:00 PM56 °FSunny.6 mph38%30.29 "Hg19 mi
4:00 PM55 °FSunny.3 mph41%30.30 "Hg25 mi
3:00 PM54 °FPassing clouds.5 mph42%30.33 "Hg22 mi
2:00 PM54 °FSunny.5 mph45%30.34 "Hg19 mi
1:00 PM53 °FPassing clouds.5 mph44%30.34 "Hg19 mi
12:00 PM51 °FScattered clouds.6 mph50%30.36 "Hg19 mi
11:00 AM49 °FPassing clouds.5 mph56%30.36 "Hg22 mi
10:00 AM46 °FSunny.5 mph66%30.35 "Hg17 mi
9:00 AM43 °FSunny.2 mph73%30.35 "Hg19 mi
8:00 AM41 °FSunny.3 mph80%30.33 "Hg19 mi
7:00 AM38 °FSunny.3 mph84%30.31 "Hg22 mi
6:00 AM39 °FClear.3 mph80%30.29 "Hg22 mi
5:00 AM39 °FClear.2 mph78%30.29 "Hg31 mi
4:00 AM39 °FClear.2 mph75%30.29 "Hg37 mi
3:00 AM41 °FClear.2 mph71%30.27 "Hg37 mi
2:00 AM42 °FClear.3 mph67%30.27 "Hg34 mi
Weather by CustomWeather, © 2015

See weather overviewHow to use our weather pages